Date Time,Air Temp,Sky Temp,Clarity,Light Level,Rain Sensor,Readings
2020-12-30 00:00:06,15.0,-22.1,37.1,0.8,-2.4,111
2020-12-30 00:05:06,15.0,-22.1,37.1,0.8,-2.3,112
2020-12-30 00:10:06,15.0,-22.4,37.4,0.9,-2.3,111
2020-12-30 00:15:06,15.0,-21.0,36.0,0.9,-2.3,112
2020-12-30 00:20:06,15.1,-22.0,37.1,0.9,-2.3,112
2020-12-30 00:25:06,14.9,-23.1,38.0,0.9,-2.3,111
2020-12-30 00:30:06,14.7,-23.0,37.7,0.9,-2.4,111
2020-12-30 00:35:06,14.5,-22.8,37.3,0.9,-2.4,112
2020-12-30 00:40:06,14.4,-22.8,37.2,0.9,-2.4,111
2020-12-30 00:45:06,14.6,-22.7,37.3,1.0,-2.4,112
2020-12-30 00:50:06,14.6,-22.6,37.2,1.0,-2.4,112
2020-12-30 00:55:06,14.4,-22.5,36.9,1.0,-2.4,112
2020-12-30 01:00:06,14.2,-22.4,36.6,1.0,-2.4,111
2020-12-30 01:05:06,14.1,-22.4,36.5,1.0,-2.4,112
2020-12-30 01:10:06,14.1,-22.6,36.7,1.0,-2.4,112
2020-12-30 01:15:06,14.1,-22.5,36.7,1.0,-2.4,111
2020-12-30 01:20:06,14.2,-22.6,36.8,1.0,-2.4,112
2020-12-30 01:25:06,14.2,-22.4,36.6,1.0,-2.4,112
2020-12-30 01:30:06,14.2,-22.3,36.5,1.0,-2.4,111
2020-12-30 01:35:06,14.1,-22.4,36.5,1.0,-2.4,112
2020-12-30 01:40:06,14.1,-22.1,36.1,1.0,-2.3,111
2020-12-30 01:45:06,14.0,-22.3,36.3,0.9,-2.3,112
2020-12-30 01:50:06,13.9,-22.6,36.5,1.0,-2.3,112
2020-12-30 01:55:06,14.0,-22.5,36.4,1.0,-2.4,112
2020-12-30 02:00:06,14.0,-22.5,36.5,1.1,-2.4,111
2020-12-30 02:05:06,13.9,-22.7,36.6,1.1,-2.4,112
2020-12-30 02:10:06,13.8,-22.8,36.6,1.0,-2.4,111
2020-12-30 02:15:06,13.8,-22.8,36.6,1.1,-2.4,112
2020-12-30 02:20:06,13.9,-22.5,36.4,1.0,-2.4,112
2020-12-30 02:25:06,13.9,-22.6,36.5,1.0,-2.4,112
2020-12-30 02:30:06,13.9,-22.6,36.5,1.0,-2.4,111
2020-12-30 02:35:06,13.9,-22.8,36.7,1.0,-2.4,112
2020-12-30 02:40:06,13.9,-22.7,36.6,1.0,-2.4,112
2020-12-30 02:45:06,13.9,-22.7,36.5,1.0,-2.4,112
2020-12-30 02:50:06,13.9,-22.7,36.6,1.0,-2.4,111
2020-12-30 02:55:06,14.0,-22.4,36.4,1.0,-2.4,112
2020-12-30 03:00:06,14.1,-22.6,36.7,1.1,-2.4,111
2020-12-30 03:05:06,14.2,-22.7,36.9,1.0,-2.4,112
2020-12-30 03:10:06,14.2,-22.6,36.9,1.0,-2.4,112
2020-12-30 03:15:06,14.3,-22.3,36.6,1.0,-2.4,111
2020-12-30 03:20:06,14.3,-22.2,36.5,1.0,-2.5,112
2020-12-30 03:25:06,14.3,-21.8,36.1,1.0,-2.5,111
2020-12-30 03:30:06,14.3,-21.4,35.7,0.9,-2.5,112
2020-12-30 03:35:06,14.3,-20.8,35.1,0.8,-2.5,111
2020-12-30 03:40:06,14.3,-20.8,35.0,0.8,-2.6,112
2020-12-30 03:45:06,14.2,-20.9,35.0,0.9,-2.6,111
2020-12-30 03:50:06,14.2,-20.7,35.0,0.9,-2.6,112
2020-12-30 03:55:06,14.4,-20.9,35.3,0.8,-2.5,112
2020-12-30 04:00:06,14.2,-21.0,35.2,0.9,-2.4,112
2020-12-30 04:05:06,14.4,-21.0,35.4,0.9,-2.4,111
2020-12-30 04:10:06,14.6,-20.8,35.4,0.8,-2.4,112
2020-12-30 04:15:06,14.6,-20.6,35.2,0.8,-2.4,111
2020-12-30 04:20:06,14.6,-20.4,35.0,0.8,-2.4,112
2020-12-30 04:25:06,14.6,-20.2,34.8,0.8,-2.4,112
2020-12-30 04:30:06,14.6,-19.6,34.2,0.7,-2.4,111
2020-12-30 04:35:06,14.3,-19.1,33.5,0.7,-2.4,112
2020-12-30 04:40:06,14.2,-18.6,32.9,0.7,-2.5,112
2020-12-30 04:45:06,14.3,-18.5,32.7,0.7,-2.5,112
2020-12-30 04:50:06,14.4,-18.9,33.3,0.7,-2.4,111
2020-12-30 04:55:06,14.5,-19.1,33.6,0.7,-2.4,112
2020-12-30 05:00:06,14.5,-19.2,33.7,0.7,-2.4,112
2020-12-30 05:05:06,14.6,-19.8,34.3,0.7,-2.4,111
2020-12-30 05:10:06,14.3,-20.4,34.7,0.7,-2.4,112
2020-12-30 05:15:06,14.5,-21.0,35.5,0.8,-2.4,112
2020-12-30 05:20:06,14.5,-21.4,35.9,0.8,-2.4,111
2020-12-30 05:25:06,14.5,-21.7,36.2,0.8,-2.4,112
2020-12-30 05:30:06,14.4,-21.9,36.4,0.7,-2.4,112
2020-12-30 05:35:06,14.4,-21.9,36.3,0.7,-2.5,111
2020-12-30 05:40:06,14.3,-22.3,36.6,0.7,-2.6,112
2020-12-30 05:45:06,14.3,-22.3,36.6,0.7,-2.6,111
2020-12-30 05:50:06,14.3,-22.2,36.5,0.6,-2.6,111
2020-12-30 05:55:06,14.2,-22.0,36.2,0.7,-2.5,112
2020-12-30 06:00:06,14.2,-22.1,36.2,0.6,-2.5,111
2020-12-30 06:05:03,14.2,-22.2,36.4,0.6,-2.5,42
2020-12-30 06:10:03,14.1,-22.1,36.2,0.5,-2.6,112
2020-12-30 06:15:03,14.1,-21.6,35.8,0.4,-2.6,111
2020-12-30 06:20:03,14.3,-21.5,35.8,0.5,-2.7,112
2020-12-30 06:25:03,14.5,-21.7,36.1,0.5,-2.7,111
2020-12-30 06:30:03,14.4,-22.1,36.5,0.5,-2.6,112
2020-12-30 06:35:03,14.3,-22.5,36.7,0.4,-2.6,112
2020-12-30 06:40:03,14.3,-22.5,36.8,0.2,-2.6,111
2020-12-30 06:45:03,14.4,-22.0,36.5,0.1,-2.6,111
2020-12-30 06:50:03,14.4,-20.7,35.2,0.2,-2.6,112
2020-12-30 06:55:03,14.3,-20.8,35.1,0.1,-2.5,112
2020-12-30 07:00:03,14.3,-22.0,36.3,0.1,-2.5,111
2020-12-30 07:05:03,14.3,-20.6,35.0,0.1,-2.5,112
2020-12-30 07:10:03,14.4,-18.1,32.4,0.3,-2.4,112
2020-12-30 07:15:03,14.4,-18.8,33.2,0.6,-2.4,112
2020-12-30 07:20:03,14.4,-17.4,31.8,1.1,-2.4,111
2020-12-30 07:25:03,14.6,-16.8,31.4,2.2,-2.4,111
2020-12-30 07:30:03,14.7,-18.1,32.8,3.9,-2.4,112
2020-12-30 07:35:03,14.6,-19.0,33.6,6.8,-2.4,112
2020-12-30 07:40:03,14.5,-20.1,34.6,10.9,-2.4,111
2020-12-30 07:45:03,14.5,-20.7,35.2,15.9,-2.4,112
2020-12-30 07:50:03,14.4,-21.0,35.4,21.0,-2.5,112
2020-12-30 07:55:03,14.3,-20.4,34.7,25.3,-2.4,111
2020-12-30 08:00:03,14.3,-19.4,33.6,28.0,-2.5,112
2020-12-30 08:05:03,14.3,-19.6,33.9,29.2,-2.4,111
2020-12-30 08:10:03,14.5,-20.2,34.7,29.8,-2.4,112
2020-12-30 08:15:03,14.7,-20.2,34.9,30.4,-2.4,112
2020-12-30 08:20:03,14.6,-19.5,34.1,30.8,-2.4,111
2020-12-30 08:25:03,14.4,-17.6,32.0,31.2,-2.4,112
2020-12-30 08:30:03,14.5,-13.4,27.9,31.6,-2.5,111
2020-12-30 08:35:03,14.6,-14.0,28.6,31.7,-2.4,112
2020-12-30 08:40:03,14.8,-17.5,32.3,31.8,-2.5,111
2020-12-30 08:45:03,14.8,-18.6,33.4,31.8,-2.5,112
2020-12-30 08:50:03,14.7,-20.1,34.8,31.9,-2.5,112
2020-12-30 08:55:03,14.8,-21.3,36.1,31.9,-2.5,111
2020-12-30 09:00:03,14.8,-21.3,36.0,32.0,-2.5,112
2020-12-30 09:05:03,14.8,-21.5,36.3,32.0,-2.6,111
2020-12-30 09:10:03,14.8,-21.6,36.5,32.0,-2.5,111
2020-12-30 09:15:03,14.9,-21.5,36.4,32.1,-2.5,112
2020-12-30 09:20:03,14.9,-20.9,35.7,32.1,-2.5,111
2020-12-30 09:25:03,14.9,-20.3,35.2,32.2,-2.6,112
2020-12-30 09:30:03,15.1,-20.0,35.1,32.2,-2.6,112
2020-12-30 09:35:03,15.3,-19.5,34.9,32.3,-2.8,112
2020-12-30 09:40:03,15.5,-18.9,34.4,32.3,-2.8,112
2020-12-30 09:45:03,15.5,-20.1,35.6,32.3,-2.7,111
2020-12-30 09:50:03,15.5,-20.9,36.3,32.3,-2.5,112
2020-12-30 09:55:03,15.4,-21.0,36.5,32.3,-2.5,111
2020-12-30 10:00:03,15.5,-20.5,36.0,32.3,-2.5,112
2020-12-30 10:05:03,15.6,-20.6,36.3,32.3,-2.4,111
2020-12-30 10:10:03,15.9,-20.8,36.8,32.3,-2.4,111
2020-12-30 10:15:03,15.9,-21.0,37.0,32.3,-2.4,112
2020-12-30 10:20:03,16.0,-20.5,36.5,32.3,-2.4,111
2020-12-30 10:25:03,16.1,-19.8,35.9,32.4,-2.4,112
2020-12-30 10:30:03,16.1,-18.6,34.7,32.4,-2.4,112
2020-12-30 10:35:03,16.1,-18.7,34.7,32.4,-2.3,111
2020-12-30 10:40:03,16.2,-19.2,35.4,32.4,-2.4,112
2020-12-30 10:45:03,16.3,-19.3,35.5,32.4,-2.4,111
2020-12-30 10:50:03,16.4,-18.2,34.5,32.4,-2.5,112
2020-12-30 10:55:03,16.9,-18.0,34.9,32.4,-2.4,111
2020-12-30 11:00:03,17.2,-17.2,34.3,32.5,-2.5,112
2020-12-30 11:05:03,17.6,-18.0,35.6,32.4,-2.9,111
2020-12-30 11:10:03,17.4,-18.3,35.6,32.4,-3.0,112
2020-12-30 11:15:03,17.2,-18.7,35.8,32.4,-2.9,112
2020-12-30 11:20:03,17.1,-19.0,36.1,32.4,-2.6,111
2020-12-30 11:25:03,17.0,-18.8,35.8,32.4,-2.6,112
2020-12-30 11:30:03,16.8,-17.7,34.5,32.4,-2.5,111
2020-12-30 11:35:03,16.5,-17.3,33.8,32.4,-2.5,112
2020-12-30 11:40:03,16.3,-16.5,32.8,32.4,-2.6,111
2020-12-30 11:45:03,16.2,-16.4,32.6,32.4,-2.6,112
2020-12-30 11:50:03,16.3,-18.4,34.7,32.4,-2.5,111
2020-12-30 11:55:03,16.5,-19.4,35.8,32.5,-2.4,112
2020-12-30 12:00:03,16.9,-19.2,36.1,32.5,-2.5,111
2020-12-30 12:05:03,17.5,-19.3,36.8,32.5,-2.9,112
2020-12-30 12:10:03,17.7,-19.4,37.1,32.4,-2.8,112
2020-12-30 12:15:03,17.9,-18.3,36.2,32.5,-2.7,111
2020-12-30 12:20:03,18.5,-18.1,36.5,32.5,-2.4,112
2020-12-30 12:25:03,19.1,-17.1,36.3,32.5,-2.4,111
2020-12-30 12:30:03,19.7,-16.3,36.0,32.5,-2.5,112
2020-12-30 12:35:03,20.2,-15.4,35.6,32.6,-2.6,111
2020-12-30 12:40:03,20.3,-17.1,37.4,32.5,-2.4,112
2020-12-30 12:45:03,19.2,-17.2,36.4,32.4,-2.6,111
2020-12-30 12:50:03,18.2,-16.2,34.4,32.4,-2.4,112
2020-12-30 12:55:03,17.6,-12.8,30.4,32.4,-2.4,111
2020-12-30 13:00:03,17.4,-10.0,27.4,32.4,-2.4,112
2020-12-30 13:05:03,17.3,-9.1,26.5,32.4,-2.5,112
2020-12-30 13:10:03,17.3,-8.6,25.8,32.4,-2.6,112
2020-12-30 13:15:03,17.3,-8.6,25.9,32.4,-2.6,112
2020-12-30 13:20:03,17.2,-8.7,26.0,32.4,-2.6,111
2020-12-30 13:25:03,17.2,-8.8,26.0,32.4,-2.6,112
2020-12-30 13:30:03,17.2,-8.7,25.9,32.4,-2.6,111
2020-12-30 13:35:03,17.2,-8.6,25.8,32.4,-2.5,112
2020-12-30 13:40:03,17.4,-8.8,26.2,32.4,-2.4,112
2020-12-30 13:45:03,17.6,-8.8,26.4,32.4,-2.4,111
2020-12-30 13:50:03,17.7,-9.1,26.8,32.3,-2.4,112
2020-12-30 13:55:03,17.7,-9.0,26.7,32.3,-2.4,112
2020-12-30 14:00:03,17.7,-8.7,26.4,32.3,-2.4,112
2020-12-30 14:05:03,17.7,-9.4,27.0,32.3,-2.4,112
2020-12-30 14:10:03,17.6,-9.8,27.3,32.3,-2.4,112
2020-12-30 14:15:03,17.6,-9.2,26.7,32.3,-2.6,111
2020-12-30 14:20:03,17.6,-8.6,26.2,32.3,-2.6,112
2020-12-30 14:25:03,17.7,-8.7,26.3,32.3,-2.7,112
2020-12-30 14:30:03,17.8,-7.7,25.5,32.2,-2.7,112
2020-12-30 14:35:03,17.6,-6.4,24.0,32.2,-2.5,112
2020-12-30 14:40:03,18.1,-5.9,24.0,32.2,-2.4,111
2020-12-30 14:45:03,18.2,-6.6,24.8,32.1,-2.3,112
2020-12-30 14:50:03,18.1,-6.6,24.7,32.1,-2.3,112
2020-12-30 14:55:03,17.9,-7.5,25.3,32.1,-2.4,111
2020-12-30 15:00:03,17.6,-8.8,26.4,32.0,-2.4,112
2020-12-30 15:05:03,17.4,-8.8,26.2,32.0,-2.6,112
2020-12-30 15:10:03,17.4,-9.4,26.8,32.0,-2.7,112
2020-12-30 15:15:03,17.3,-8.7,26.0,31.9,-2.8,112
2020-12-30 15:20:03,17.3,-7.5,24.8,31.9,-2.8,111
2020-12-30 15:25:03,17.5,-6.9,24.4,31.8,-2.8,112
2020-12-30 15:30:03,17.6,-5.8,23.4,31.5,-2.7,111
2020-12-30 15:35:03,17.7,-5.4,23.1,31.5,-2.5,112
2020-12-30 15:40:03,17.8,-6.5,24.3,31.3,-2.5,112
2020-12-30 15:45:03,17.8,-7.6,25.4,30.9,-2.6,111
2020-12-30 15:50:03,17.7,-7.6,25.3,30.7,-2.8,111
2020-12-30 15:55:03,17.6,-7.7,25.3,30.3,-2.8,111
2020-12-30 16:00:03,17.4,-7.9,25.3,29.8,-2.8,111
2020-12-30 16:05:03,17.3,-7.7,25.0,29.1,-2.9,112
2020-12-30 16:10:03,17.5,-5.3,22.8,28.0,-3.0,111
2020-12-30 16:15:03,17.6,-5.6,23.1,27.0,-2.9,111
2020-12-30 16:20:03,17.6,-5.8,23.4,25.0,-2.9,111
2020-12-30 16:25:03,17.7,-7.0,24.7,21.7,-2.9,112
2020-12-30 16:30:03,17.6,-7.0,24.6,17.2,-3.1,112
2020-12-30 16:35:03,17.6,-7.0,24.6,12.1,-3.2,111
2020-12-30 16:40:03,17.8,-6.5,24.3,7.8,-3.1,112
2020-12-30 16:45:03,17.8,-7.0,24.8,4.5,-3.0,111
2020-12-30 16:50:03,17.6,-6.5,24.0,2.4,-3.1,112
2020-12-30 16:55:03,17.5,-6.1,23.6,1.2,-3.1,111
2020-12-30 17:00:03,17.6,-6.4,23.9,0.7,-3.0,112
2020-12-30 17:05:03,17.6,-7.2,24.8,0.4,-3.0,112
2020-12-30 17:10:03,17.5,-8.6,26.2,0.2,-3.0,112
2020-12-30 17:15:03,17.6,-7.8,25.4,0.1,-3.0,112
2020-12-30 17:20:03,17.8,-7.0,24.8,0.1,-3.0,111
2020-12-30 17:25:03,17.8,-8.1,25.9,0.0,-2.9,112
2020-12-30 17:30:03,17.9,-7.2,25.0,0.0,-2.9,111
2020-12-30 17:35:04,17.8,-7.5,25.3,0.0,-2.9,112
2020-12-30 17:40:04,17.7,-8.3,25.9,0.0,-3.0,111
2020-12-30 17:45:04,17.5,-8.4,25.9,0.0,-3.2,112
2020-12-30 17:50:04,17.6,-6.4,24.0,0.0,-3.1,112
2020-12-30 17:55:04,17.5,-5.4,22.9,0.0,-3.0,111
2020-12-30 18:00:04,17.4,-4.9,22.4,0.0,-3.0,111
2020-12-30 18:05:04,17.4,-4.8,22.3,0.0,-3.0,111
2020-12-30 18:10:04,17.5,-5.0,22.6,0.0,-2.9,112
2020-12-30 18:15:04,17.5,-5.3,22.8,0.1,-2.9,111
2020-12-30 18:20:04,17.6,-5.1,22.7,0.1,-2.9,111
2020-12-30 18:25:04,17.8,-3.4,21.2,0.1,-2.8,112
2020-12-30 18:30:04,18.1,-3.8,21.8,0.1,-2.5,111
2020-12-30 18:35:04,18.2,-3.9,22.1,0.1,-2.4,112
2020-12-30 18:40:04,18.2,-4.3,22.5,0.1,-2.4,112
2020-12-30 18:45:04,18.0,-5.1,23.1,0.1,-2.5,111
2020-12-30 18:50:04,17.9,-4.6,22.4,0.1,-2.8,112
2020-12-30 18:55:04,18.0,-2.9,20.9,0.1,-2.8,111
2020-12-30 19:00:04,18.1,-4.2,22.2,0.1,-2.8,113
2020-12-30 19:05:04,17.9,-4.2,22.1,0.1,-2.9,112
2020-12-30 19:10:04,17.7,-4.2,21.9,0.1,-3.0,112
2020-12-30 19:15:04,17.6,-4.2,21.7,0.1,-3.1,112
2020-12-30 19:20:04,17.4,-4.5,21.9,0.1,-3.3,112
2020-12-30 19:25:04,17.2,-5.2,22.5,0.1,-3.3,111
2020-12-30 19:30:04,17.2,-5.3,22.5,0.1,-3.3,111
2020-12-30 19:35:04,17.2,-4.7,21.8,0.1,-3.3,112
2020-12-30 19:40:04,17.1,-4.0,21.1,0.2,-3.2,112
2020-12-30 19:45:04,17.1,-3.8,20.9,0.1,-3.2,112
2020-12-30 19:50:04,17.1,-4.0,21.1,0.1,-3.2,112
2020-12-30 19:55:04,17.1,-4.2,21.3,0.1,-3.1,112
2020-12-30 20:00:04,17.1,-4.5,21.5,0.1,-3.0,112
2020-12-30 20:05:04,17.0,-5.2,22.2,0.1,-2.9,111
2020-12-30 20:10:04,16.9,-5.5,22.4,0.2,-2.8,112
2020-12-30 20:15:04,16.8,-5.6,22.4,0.2,-2.8,111
2020-12-30 20:20:04,16.7,-6.1,22.8,0.2,-2.8,112
2020-12-30 20:25:04,16.7,-7.1,23.8,0.2,-2.8,111
2020-12-30 20:30:04,16.6,-7.8,24.4,0.2,-2.8,112
2020-12-30 20:35:04,16.6,-7.5,24.1,0.2,-2.8,111
2020-12-30 20:40:04,16.6,-8.5,25.1,0.2,-2.8,112
2020-12-30 20:45:04,16.6,-9.8,26.4,0.2,-2.8,112
2020-12-30 20:50:04,16.4,-10.7,27.2,0.1,-2.8,112
2020-12-30 20:55:04,16.3,-11.5,27.8,0.1,-2.8,111
2020-12-30 21:00:04,16.3,-12.7,28.9,0.1,-2.8,111
2020-12-30 21:05:04,16.3,-12.6,28.9,0.1,-2.8,112
2020-12-30 21:10:04,16.3,-13.0,29.3,0.1,-2.8,111
2020-12-30 21:15:04,16.2,-12.7,28.9,0.2,-2.8,112
2020-12-30 21:20:04,16.1,-12.3,28.5,0.2,-2.8,111
2020-12-30 21:25:04,16.1,-11.3,27.4,0.2,-2.8,112
2020-12-30 21:30:04,16.2,-10.1,26.3,0.2,-2.8,112
2020-12-30 21:35:04,16.2,-8.9,25.2,0.2,-2.8,112
2020-12-30 21:40:04,16.3,-8.0,24.3,0.2,-2.8,111
2020-12-30 21:45:04,16.3,-8.0,24.3,0.2,-2.9,112
2020-12-30 21:50:04,16.4,-8.5,24.9,0.2,-2.8,112
2020-12-30 21:55:04,16.6,-9.3,25.8,0.2,-2.8,112
2020-12-30 22:00:04,16.5,-10.4,26.9,0.2,-2.8,112
2020-12-30 22:05:04,16.4,-11.7,28.1,0.2,-2.8,111
2020-12-30 22:10:04,16.2,-14.1,30.3,0.2,-2.8,111
2020-12-30 22:15:04,15.9,-15.2,31.1,0.2,-2.8,112
2020-12-30 22:20:04,15.7,-16.9,32.6,0.2,-2.7,112
2020-12-30 22:25:04,15.5,-19.2,34.7,0.2,-2.6,111
2020-12-30 22:30:04,15.3,-20.6,36.0,0.2,-2.7,112
2020-12-30 22:35:04,15.2,-21.2,36.5,0.3,-2.8,111
2020-12-30 22:40:04,15.1,-21.7,36.9,0.3,-2.8,112
2020-12-30 22:45:04,15.1,-21.7,36.8,0.3,-2.8,111
2020-12-30 22:50:04,15.1,-21.6,36.6,0.3,-2.8,112
2020-12-30 22:55:04,15.1,-21.8,36.8,0.3,-2.8,112
2020-12-30 23:00:04,15.0,-22.2,37.2,0.3,-2.8,111
2020-12-30 23:05:04,15.0,-22.1,37.1,0.3,-2.9,112
2020-12-30 23:10:04,14.9,-22.1,37.0,0.4,-3.0,111
2020-12-30 23:15:04,14.9,-21.9,36.9,0.4,-3.1,112
2020-12-30 23:20:04,15.0,-22.0,37.0,0.4,-3.2,111
2020-12-30 23:25:04,14.9,-22.0,36.9,0.4,-3.2,111
2020-12-30 23:30:04,14.9,-22.0,36.8,0.4,-3.1,112
2020-12-30 23:35:04,14.9,-21.9,36.7,0.4,-3.1,111
2020-12-30 23:40:04,14.9,-22.1,37.0,0.5,-3.1,112
2020-12-30 23:45:04,14.8,-22.1,36.9,0.5,-3.0,111
2020-12-30 23:50:04,14.7,-22.3,37.1,0.5,-3.0,112
2020-12-30 23:55:04,14.7,-22.2,36.9,0.5,-2.9,111
